www.pogodaiklimat.ru

Погода и климат >> Архив погоды >> Ирак >> Erbeel


ПОГОДА в Erbeel

  • Прогноз погоды в Erbeel
  • Монитор погоды в Erbeel
  • Климат города

АРХИВ ПОГОДЫ в Erbeel

Время (UTC), дата Ветер
(напр.,м/с)
 
Видим.   Явления Облачность Т
(С)
Тd
(С)
f
(%)
Тe
(С)
Тes
(С)
Комфортность P
(гПа)
Po
(гПа)
Тmin
(С)
Tmax
(С)
R
(мм)
R24
(мм)
S
(см)
03 13.08 штиль 0 10 км ясно +29.8 +14.4 39 +32 +32 душно 1001.2 1001.0
06 13.08 штиль 0 8000 м мгла ясно +38.0 +15.7 27 +40 +54 опасность
солнечного
удара
1000.2 1000.0 +29.4
09 13.08 З 3 10 км ясно +43.8 +15.8 20 +45 +61 опасность
перегрева
999.4 999.0
12 13.08 З 1 10 км ясно +44.8 +14.4 17 +45 +58 опасность
перегрева
998.1 998.0
15 13.08 З 5 10 км ясно +43.5 +14.3 18 +44 +44 опасность
перегрева
998.3 998.0
18 13.08 З 4 10 км ясно +39.0 +16.2 26 +41 +41 опасность
перегрева
999.9 1000.0 +45.8
03 14.08 СВ 1 10 км ясно +30.2 +17.8 47 +34 +35 очень
душно
1003.4 1003.0
06 14.08 штиль 0 10 км ясно +36.8 +18.4 34 +41 +55 опасность
перегрева
1003.2 1003.0 +30.0
12 14.08 З 2 10 км ясно +40.5 +16.0 24 +42 +53 опасность
перегрева
1002.1 1002.0
15 14.08 ЮЗ 2 10 км ясно +38.8 +16.1 26 +40 +41 очень
душно
1000.8 1001.0
18 14.08 З 3 10 км ясно +36.6 +14.9 28 +38 +38 очень
душно
1002.7 1003.0 +41.3
03 15.08 штиль 0 10 км ясно +28.8 +14.3 41 +31 +31 жарко 1003.3 1003.0
06 15.08 штиль 0 8000 м мгла 3/0
[Ac trans]
+35.1 +15.6 31 +37 +48 очень
душно
1002.8 1003.0 +27.8
09 15.08 Ю 2 8000 м мгла ясно +39.5 +16.0 25 +41 +60 опасность
перегрева
1000.7 1001.0
12 15.08 Ю 2 8000 м мгла ясно +41.6 +17.5 25 +44 +55 опасность
перегрева
998.7 999.0
15 15.08 З 3 9000 м мгла ясно +39.9 +16.2 25 +42 +42 опасность
перегрева
999.0 999.0
18 15.08 З 3 9000 м мгла ясно +37.3 +13.7 25 +38 +38 душно 999.6 1000.0 +41.8
03 16.08 В 2 7000 м мгла 6/0
[Ac trans Cs]
+32.0 +13.2 32 +33 +33 жарко 1001.1 1001.0
06 16.08 Ю 1 8000 м мгла ясно +36.2 +17.4 33 +39 +51 опасность
солнечного
удара
1002.9 1003.0 +29.6
12 16.08 Ю 2 9000 м мгла ясно +41.6 +17.7 25 +44 +55 опасность
перегрева
1000.8 1001.0
09 17.08 В 6 5000 м пыль ясно +42.6 +16.9 23 +45 +52 опасность
перегрева
999.9 1000.0
12 17.08 В 3 8000 м мгла 3/0
[Ac trans]
+43.0 +14.5 19 +44 +51 опасность
перегрева
999.3 999.0
15 17.08 В 4 6000 м мгла ясно +41.2 +15.1 22 +42 +43 опасность
перегрева
999.7 1000.0
18 17.08 штиль 0 10 км ясно +36.9 +15.2 28 +38 +38 очень
душно
1002.2 1002.0 +43.6
03 18.08 штиль 0 9000 м мгла ясно +29.9 +15.0 40 +32 +33 жарко 1004.7 1005.0
09 18.08 З 1 10 км ясно +40.0 +14.0 22 +41 +62 опасность
перегрева
1004.4 1004.0
12 18.08 З 3 10 км ясно +41.0 +14.7 21 +42 +50 опасность
перегрева
1002.0 1002.0
15 18.08 З 2 10 км ясно +39.9 +14.3 22 +40 +41 очень
душно
1001.5 1002.0
18 18.08 В 1 10 км ясно +34.8 +16.4 33 +37 +37 очень
душно
1002.6 1003.0 +41.3
03 19.08 штиль 0 10 км ясно +29.0 +11.9 35 +30 +30 жарко 1006.4 1006.0
06 19.08 З 1 10 км ясно +34.5 +12.5 26 +35 +46 очень
жарко
1006.7 1007.0 +27.6
09 19.08 ЮЗ 2 10 км ясно +39.0 +13.8 23 +40 +58 опасность
солнечного
удара
1006.0 1006.0
12 19.08 З 2 10 км ясно +40.8 +12.4 19 +40 +51 опасность
солнечного
удара
1005.0 1005.0
15 19.08 З 2 10 км ясно +40.0 +10.0 17 +39 +39 очень
жарко
1004.5 1005.0

 

Местоположение метеостанции Erbeel (Ирак): широта 36.15 долгота 44.00 высота над уровнем моря 420 м.

В архиве по умолчанию представлена погода в Erbeel за последнюю неделю. Архивные данные за месяц целиком и за предыдущие месяцы, начиная с января 2011 года, Вы можете получить, выбрав интересующий диапазон дат из раскрывающегося списка и нажав кнопку "Ввод!".

Внимание! Время в таблицах - всемирное. Для получения местного времени необходимо прибавить поправку, которая в Erbeel равна 3 ч.

Смотрите также архив погоды в соседних городах и на ближайших метеорологических станциях:

Погода в Salahadin (Ирак) (31 км)
Погода в Makhmoor (Ирак) (57 км)
Погода в Aqraa (Ирак) (68 км)
Погода в Mosul (Ирак) (79 км)
Погода в Kirkuk (Ирак) (84 км)
Погода в Chamchamal (Ирак) (103 км)
Погода в Dohuk (Ирак) (120 км)
Погода в Baiji (Ирак) (144 км)
Погода в Sulaimaniya (Ирак) (147 км)
Погода в Tuz (Ирак) (153 км)

Пояснения к столбцам:

Ветер - указаны скорость ветра в м/с - средняя за 10 мин, порывы в срок и между сроками (в фигурных скобках) и направление, откуда дует ветер: С - северный, СВ - северо-восточный, В - восточный, ЮВ - юго-восточный, Ю - южный, ЮЗ - юго-западный, З - западный, СЗ - северо-западный.
Видимость - горизонтальная дальность видимости в метрах или километрах. При видимости от 1 до 10 км при отсутствии осадков обычно наблюдается дымка, при ухудшении видимости до 1 км и менее - туман. В сухую погоду видимость может ухудшаться дымом, пылью или мглою.
Явления - указаны атмосферные явления, наблюдавшиеся в срок или в последний час перед сроком; фигурными скобками обозначены явления, наблюдавшиеся между сроками (за 1-3 часа до срока); квадратными скобками обозначены град или гололедные отложения с указанием их диаметра в мм.
Облачность - указаны через наклонную черту общая и нижняя облачность в баллах и высота нижней границы облаков в метрах; квадратными скобками обозначены формы облаков: Ci - перистые, Cs - перисто-слоистые, Cc - перисто-кучевые, Ac - высококучевые, As - высокослоистые, Sc - слоисто-кучевые, Ns - слоисто-дождевые, Cu - кучевые, Cb - кучево-дождевые. Подробнее классификацию облаков см. в Атласе облаков (PDF).
T - Температура воздуха - температура, измеренная на высоте 2 м над землей.
Td - Температура точки росы - температура, при понижении до которой содержащийся в воздухе водяной пар достигнет насыщения.
f - Относительная влажность воздуха - влажноcть воздуха, измеренная на высоте 2 м над землей.
Te - Эффективная температура - температура, которую ощущает одетый по сезону человек в тени. Характеристика душности погоды. При расчете учитывается влияние влажности воздуха и скорости ветра на теплоощущения человека.
Tes - Эффективная температура на солнце - температура, которую ощущает человек, с поправкой на солнечный нагрев. Характеристика знойности погоды. Зависит от высоты солнца над горизонтом, облачности и скорости ветра. Ночью, в пасмурную погоду, а также при ветре 12 м/с и более поправка равна нулю.
P - Атмосферное давление - приведенное к уровню моря атмосферное давление.
Po - Атмосферное давление - измеренное на уровне метеостанции атмосферное давление.
Tmin - Минимальная температура - минимум температуры воздуха на высоте 2 м над землей.
Tmax - Максимальная температура - максимум температуры воздуха на высоте 2 м над землей.
R - Количество осадков - Количество выпавших осадков за период времени, мм. При наведении курсора мыши на число - период времени, за который выпало указанное количество осадков.
R24 - Количество осадков - Количество выпавших осадков за 24 часа, мм.
S - Снежный покров - Высота снежного покрова, см. При наведении курсора мыши на число - состояние снежного покрова и степень покрытия местности в баллах.